QPF
0.00 0.01 0.03 0.05 0.05 0.04 0.01 0.01 0.00 0.00 0.00 0.01 0.01 0.00 0.00 0.01 0.02 0.06 0.11 0.08 0.06 0.06 0.07 0.09 0.09 0.08 0.06 0.06 0.06 0.07 0.07 0.06 0.06 0.07 0.07 0.06 0.07 0.05 0.05 0.04 0.05 0.05 0.06 0.07 0.07 0.09 0.12 0.10 0.12
0.02 0.03 0.05 0.05 0.06 0.02 0.01 0.01 0.01 0.00 0.00 0.00 0.00 0.00 0.01 0.01 0.02 0.07 0.11 0.06 0.04 0.04 0.04 0.04 0.06 0.07 0.06 0.04 0.05 0.05 0.06 0.07 0.08 0.09 0.07 0.04 0.04 0.05 0.05 0.05 0.04 0.05 0.05 0.07 0.10 0.09 0.12 0.10 0.09
0.03 0.04 0.03 0.05 0.02 0.01 0.01 0.01 0.01 0.00 0.00 0.00 0.01 0.01 0.03 0.02 0.02 0.04 0.07 0.04 0.03 0.04 0.02 0.03 0.04 0.05 0.04 0.05 0.05 0.05 0.11 0.16 0.17 0.12 0.06 0.05 0.04 0.04 0.05 0.04 0.07 0.05 0.06 0.07 0.11 0.10 0.15 0.12 0.09
0.02 0.02 0.03 0.03 0.01 0.01 0.01 0.01 0.00 0.00 0.00 0.00 0.01 0.02 0.03 0.03 0.03 0.04 0.04 0.03 0.03 0.08 0.04 0.02 0.02 0.02 0.02 0.02 0.03 0.05 0.15 0.21 0.16 0.08 0.06 0.04 0.03 0.03 0.03 0.04 0.08 0.08 0.10 0.11 0.12 0.11 0.14 0.10 0.08
0.01 0.02 0.03 0.02 0.01 0.01 0.01 0.00 0.00 0.00 0.00 0.00 0.01 0.03 0.07 0.05 0.04 0.03 0.03 0.02 0.02 0.02 0.04 0.04 0.02 0.02 0.01 0.02 0.03 0.05 0.11 0.17 0.17 0.10 0.05 0.03 0.02 0.02 0.03 0.03 0.05 0.10 0.17 0.18 0.13 0.13 0.10 0.07 0.06
0.01 0.01 0.02 0.02 0.01 0.01 0.01 0.00 0.00 0.00 0.00 0.00 0.01 0.03 0.09 0.07 0.05 0.05 0.03 0.02 0.03 0.02 0.05 0.09 0.03 0.01 0.01 0.02 0.03 0.04 0.07 0.09 0.11 0.11 0.06 0.03 0.02 0.02 0.02 0.03 0.04 0.07 0.13 0.14 0.11 0.09 0.06 0.04 0.04
0.01 0.01 0.02 0.02 0.01 0.01 0.00 0.00 0.00 0.00 0.00 0.00 0.00 0.03 0.07 0.09 0.06 0.04 0.03 0.03 0.03 0.02 0.01 0.03 0.03 0.01 0.01 0.02 0.02 0.03 0.04 0.05 0.06 0.06 0.05 0.04 0.03 0.02 0.02 0.03 0.03 0.05 0.08 0.10 0.09 0.05 0.04 0.03 0.03
0.01 0.01 0.01 0.01 0.00 0.01 0.00 0.00 0.00 0.00 0.00 0.01 0.01 0.01 0.03 0.07 0.06 0.04 0.03 0.03 0.02 0.03 0.03 0.03 0.03 0.02 0.01 0.01 0.01 0.02 0.02 0.03 0.05 0.04 0.04 0.04 0.03 0.03 0.02 0.02 0.03 0.04 0.05 0.07 0.06 0.03 0.03 0.03 0.03
0.01 0.00 0.01 0.01 0.01 0.01 0.01 0.01 0.00 0.00 0.00 0.01 0.01 0.01 0.01 0.02 0.03 0.03 0.04 0.04 0.03 0.03 0.04 0.04 0.03 0.02 0.01 0.01 0.01 0.01 0.01 0.02 0.03 0.03 0.04 0.03 0.03 0.02 0.02 0.02 0.03 0.03 0.04 0.06 0.06 0.06 0.04 0.04 0.05
0.00 0.00 0.00 0.00 0.00 0.01 0.00 0.00 0.00 0.00 0.00 0.01 0.01 0.02 0.01 0.02 0.03 0.02 0.02 0.04 0.04 0.03 0.05 0.05 0.04 0.04 0.04 0.03 0.02 0.01 0.01 0.01 0.02 0.02 0.03 0.02 0.02 0.02 0.01 0.02 0.04 0.04 0.05 0.05 0.05 0.05 0.05 0.03 0.03
0.00 0.00 0.00 0.00 0.00 0.00 0.00 0.00 0.00 0.00 0.00 0.01 0.01 0.02 0.01 0.01 0.01 0.02 0.02 0.03 0.03 0.02 0.03 0.05 0.05 0.04 0.04 0.05 0.03 0.02 0.02 0.01 0.02 0.03 0.03 0.03 0.04 0.03 0.02 0.03 0.04 0.05 0.03 0.02 0.03 0.03 0.02 0.02 0.02
0.00 0.00 0.00 0.00 0.00 0.00 0.00 0.00 0.00 0.00 0.00 0.00 0.00 0.01 0.01 0.01 0.01 0.02 0.02 0.02 0.02 0.01 0.01 0.02 0.02 0.03 0.03 0.03 0.03 0.02 0.02 0.02 0.02 0.02 0.02 0.02 0.04 0.03 0.03 0.03 0.04 0.03 0.03 0.03 0.03 0.02 0.02 0.03 0.03
0.00 0.00 0.00 0.00 0.00 0.00 0.00 0.01 0.01 0.00 0.00 0.00 0.00 0.01 0.01 0.01 0.02 0.02 0.02 0.02 0.02 0.01 0.02 0.01 0.01 0.01 0.01 0.02 0.02 0.02 0.03 0.04 0.03 0.02 0.03 0.03 0.03 0.03 0.04 0.03 0.03 0.03 0.03 0.04 0.04 0.04 0.04 0.03 0.03
0.00 0.00 0.01 0.01 0.01 0.01 0.00 0.01 0.01 0.01 0.00 0.01 0.01 0.01 0.01 0.02 0.04 0.02 0.05 0.04 0.03 0.02 0.02 0.01 0.01 0.01 0.02 0.01 0.02 0.03 0.03 0.04 0.03 0.02 0.03 0.02 0.02 0.02 0.03 0.02 0.02 0.03 0.03 0.03 0.03 0.03 0.03 0.03 0.04
0.01 0.01 0.01 0.01 0.01 0.01 0.00 0.01 0.01 0.01 0.01 0.01 0.01 0.01 0.02 0.03 0.05 0.03 0.08 0.06 0.03 0.04 0.04 0.04 0.03 0.03 0.03 0.03 0.02 0.02 0.02 0.02 0.03 0.03 0.02 0.02 0.02 0.03 0.04 0.03 0.03 0.03 0.03 0.02 0.02 0.03 0.05 0.04 0.04
0.02 0.01 0.01 0.01 0.01 0.01 0.01 0.01 0.01 0.01 0.01 0.01 0.01 0.02 0.03 0.02 0.04 0.05 0.03 0.03 0.02 0.03 0.04 0.05 0.04 0.03 0.04 0.03 0.03 0.02 0.02 0.03 0.04 0.05 0.04 0.03 0.03 0.04 0.05 0.04 0.03 0.04 0.03 0.02 0.03 0.03 0.04 0.04 0.04
0.01 0.01 0.01 0.02 0.01 0.01 0.01 0.01 0.01 0.01 0.01 0.03 0.03 0.02 0.04 0.03 0.05 0.04 0.02 0.01 0.01 0.01 0.02 0.02 0.02 0.03 0.03 0.02 0.02 0.02 0.02 0.02 0.03 0.04 0.03 0.03 0.04 0.03 0.03 0.04 0.03 0.03 0.03 0.03 0.02 0.02 0.03 0.05 0.03
0.02 0.02 0.01 0.02 0.02 0.02 0.01 0.01 0.01 0.01 0.01 0.01 0.02 0.03 0.01 0.03 0.03 0.02 0.01 0.02 0.01 0.01 0.02 0.02 0.02 0.02 0.03 0.03 0.03 0.02 0.02 0.02 0.03 0.05 0.03 0.03 0.04 0.04 0.04 0.05 0.05 0.04 0.04 0.03 0.02 0.02 0.03 0.04 0.03
0.02 0.02 0.02 0.01 0.02 0.03 0.03 0.02 0.04 0.02 0.01 0.01 0.03 0.03 0.02 0.01 0.01 0.01 0.02 0.02 0.01 0.01 0.01 0.01 0.01 0.02 0.02 0.03 0.03 0.03 0.02 0.02 0.04 0.05 0.04 0.04 0.05 0.04 0.05 0.05 0.05 0.05 0.04 0.03 0.03 0.03 0.03 0.02 0.04
0.01 0.01 0.01 0.01 0.02 0.02 0.03 0.02 0.03 0.02 0.01 0.01 0.02 0.02 0.01 0.02 0.01 0.01 0.01 0.01 0.01 0.01 0.01 0.01 0.01 0.01 0.01 0.01 0.02 0.02 0.02 0.02 0.02 0.04 0.05 0.05 0.06 0.06 0.04 0.04 0.05 0.06 0.06 0.06 0.05 0.05 0.04 0.04 0.05
0.01 0.01 0.01 0.01 0.01 0.02 0.02 0.02 0.02 0.02 0.02 0.02 0.02 0.02 0.01 0.01 0.01 0.01 0.00 0.01 0.01 0.01 0.01 0.01 0.01 0.02 0.01 0.01 0.01 0.01 0.02 0.03 0.03 0.04 0.06 0.06 0.05 0.06 0.07 0.07 0.05 0.05 0.06 0.05 0.05 0.06 0.05 0.05 0.06
0.01 0.01 0.01 0.01 0.01 0.01 0.02 0.03 0.03 0.04 0.03 0.02 0.01 0.02 0.02 0.02 0.01 0.01 0.00 0.00 0.00 0.00 0.00 0.00 0.01 0.02 0.02 0.02 0.02 0.02 0.02 0.03 0.02 0.04 0.06 0.08 0.05 0.04 0.05 0.06 0.07 0.07 0.07 0.06 0.05 0.06 0.05 0.05 0.06
0.00 0.00 0.00 0.01 0.01 0.01 0.02 0.04 0.04 0.05 0.05 0.03 0.02 0.02 0.02 0.01 0.01 0.01 0.00 0.00 0.00 0.00 0.00 0.01 0.01 0.01 0.02 0.02 0.04 0.04 0.04 0.02 0.02 0.03 0.05 0.05 0.05 0.04 0.04 0.05 0.07 0.08 0.08 0.07 0.06 0.07 0.05 0.05 0.06
0.01 0.01 0.00 0.00 0.00 0.01 0.03 0.03 0.03 0.04 0.06 0.04 0.03 0.04 0.04 0.01 0.01 0.01 0.00 0.00 0.00 0.00 0.00 0.01 0.01 0.02 0.02 0.03 0.05 0.04 0.03 0.02 0.02 0.03 0.03 0.03 0.02 0.04 0.04 0.05 0.06 0.07 0.07 0.07 0.06 0.06 0.05 0.05 0.07
0.00 0.01 0.00 0.00 0.01 0.01 0.02 0.02 0.02 0.02 0.03 0.02 0.03 0.06 0.03 0.01 0.00 0.00 0.00 0.00 0.00 0.00 0.00 0.01 0.02 0.02 0.03 0.04 0.03 0.03 0.02 0.02 0.03 0.04 0.04 0.03 0.02 0.02 0.02 0.03 0.05 0.06 0.06 0.06 0.07 0.07 0.07 0.07 0.08
0.01 0.01 0.01 0.01 0.01 0.02 0.02 0.04 0.03 0.02 0.02 0.03 0.04 0.04 0.03 0.01 0.00 0.00 0.00 0.00 0.00 0.01 0.00 0.01 0.01 0.01 0.02 0.02 0.02 0.02 0.02 0.02 0.03 0.04 0.03 0.02 0.02 0.01 0.02 0.02 0.03 0.04 0.05 0.05 0.06 0.06 0.06 0.07 0.08
0.01 0.01 0.01 0.01 0.01 0.03 0.04 0.04 0.04 0.04 0.04 0.03 0.04 0.05 0.04 0.02 0.01 0.01 0.01 0.01 0.01 0.00 0.00 0.01 0.01 0.01 0.01 0.02 0.02 0.03 0.04 0.04 0.04 0.04 0.03 0.02 0.03 0.03 0.03 0.03 0.03 0.04 0.04 0.04 0.06 0.06 0.05 0.06 0.07
0.01 0.01 0.01 0.01 0.01 0.02 0.03 0.05 0.08 0.07 0.04 0.04 0.04 0.05 0.04 0.03 0.03 0.02 0.02 0.01 0.00 0.00 0.00 0.01 0.02 0.03 0.03 0.04 0.04 0.05 0.05 0.05 0.04 0.02 0.02 0.02 0.01 0.02 0.03 0.02 0.03 0.03 0.03 0.03 0.04 0.05 0.06 0.06 0.06
0.01 0.01 0.01 0.02 0.02 0.02 0.03 0.05 0.04 0.05 0.04 0.03 0.05 0.06 0.06 0.05 0.05 0.04 0.01 0.01 0.01 0.01 0.02 0.03 0.04 0.06 0.09 0.08 0.08 0.08 0.07 0.09 0.06 0.03 0.02 0.02 0.01 0.02 0.02 0.02 0.02 0.02 0.02 0.03 0.04 0.03 0.04 0.05 0.07
0.01 0.01 0.01 0.01 0.01 0.02 0.02 0.03 0.02 0.02 0.02 0.02 0.05 0.07 0.06 0.05 0.03 0.03 0.03 0.02 0.01 0.02 0.03 0.04 0.08 0.11 0.10 0.09 0.08 0.09 0.13 0.16 0.09 0.04 0.03 0.03 0.01 0.01 0.01 0.02 0.02 0.02 0.03 0.04 0.04 0.04 0.05 0.06 0.06
MSLP
1002.96 1004.33 1006.02 1007.81 1009.46 1010.79 1011.67 1012.08 1012.08 1011.81 1011.44 1011.15 1011.03 1011.12 1011.40 1011.77 1012.12 1012.35 1012.42 1012.31 1012.08 1011.80 1011.57 1011.46 1011.48 1011.64 1011.88 1012.13 1012.34 1012.47 1012.50 1012.46 1012.39 1012.33 1012.34 1012.43 1012.60 1012.83 1013.09 1013.33 1013.54 1013.69 1013.79 1013.86 1013.93 1013.99 1014.09 1014.21 1014.37
1003.36 1004.96 1006.79 1008.63 1010.23 1011.43 1012.12 1012.29 1012.05 1011.56 1011.01 1010.57 1010.36 1010.39 1010.64 1011.01 1011.39 1011.67 1011.80 1011.78 1011.66 1011.51 1011.41 1011.40 1011.53 1011.76 1012.04 1012.31 1012.52 1012.63 1012.65 1012.60 1012.53 1012.50 1012.53 1012.65 1012.84 1013.08 1013.33 1013.56 1013.73 1013.86 1013.93 1013.98 1014.04 1014.10 1014.20 1014.33 1014.50
1004.02 1005.78 1007.68 1009.47 1010.95 1011.95 1012.41 1012.34 1011.89 1011.23 1010.55 1010.04 1009.78 1009.80 1010.05 1010.43 1010.82 1011.14 1011.33 1011.39 1011.36 1011.32 1011.32 1011.42 1011.63 1011.92 1012.22 1012.49 1012.68 1012.76 1012.76 1012.70 1012.63 1012.61 1012.66 1012.79 1012.98 1013.22 1013.45 1013.64 1013.79 1013.89 1013.96 1014.02 1014.09 1014.19 1014.32 1014.48 1014.67
1004.85 1006.69 1008.57 1010.25 1011.54 1012.32 1012.54 1012.27 1011.66 1010.89 1010.17 1009.65 1009.41 1009.45 1009.72 1010.11 1010.52 1010.86 1011.07 1011.18 1011.22 1011.26 1011.34 1011.52 1011.78 1012.08 1012.38 1012.63 1012.78 1012.83 1012.80 1012.72 1012.66 1012.65 1012.71 1012.85 1013.04 1013.26 1013.46 1013.62 1013.74 1013.83 1013.91 1014.00 1014.12 1014.28 1014.47 1014.68 1014.90
1005.68 1007.54 1009.33 1010.85 1011.92 1012.47 1012.49 1012.07 1011.38 1010.60 1009.91 1009.46 1009.29 1009.39 1009.69 1010.10 1010.51 1010.84 1011.06 1011.18 1011.25 1011.33 1011.46 1011.67 1011.94 1012.24 1012.51 1012.71 1012.82 1012.83 1012.77 1012.69 1012.63 1012.64 1012.72 1012.86 1013.05 1013.25 1013.42 1013.55 1013.66 1013.75 1013.85 1013.99 1014.17 1014.40 1014.66 1014.93 1015.19
1006.38 1008.18 1009.82 1011.13 1011.98 1012.33 1012.20 1011.71 1011.02 1010.32 1009.75 1009.43 1009.38 1009.57 1009.93 1010.35 1010.74 1011.04 1011.23 1011.34 1011.42 1011.50 1011.65 1011.86 1012.11 1012.38 1012.60 1012.74 1012.79 1012.77 1012.69 1012.62 1012.58 1012.62 1012.73 1012.89 1013.08 1013.26 1013.40 1013.52 1013.61 1013.70 1013.83 1014.02 1014.27 1014.57 1014.90 1015.22 1015.50
1006.82 1008.48 1009.93 1011.02 1011.66 1011.85 1011.63 1011.15 1010.55 1009.99 1009.61 1009.47 1009.58 1009.88 1010.30 1010.73 1011.10 1011.36 1011.52 1011.60 1011.66 1011.74 1011.87 1012.06 1012.28 1012.49 1012.66 1012.74 1012.74 1012.68 1012.60 1012.54 1012.55 1012.63 1012.78 1012.97 1013.17 1013.34 1013.48 1013.57 1013.64 1013.74 1013.89 1014.12 1014.42 1014.78 1015.15 1015.50 1015.80
1006.97 1008.45 1009.66 1010.53 1010.98 1011.04 1010.80 1010.38 1009.92 1009.57 1009.41 1009.48 1009.75 1010.17 1010.65 1011.09 1011.45 1011.68 1011.80 1011.86 1011.91 1011.98 1012.10 1012.27 1012.45 1012.61 1012.71 1012.74 1012.70 1012.62 1012.54 1012.52 1012.57 1012.71 1012.91 1013.15 1013.37 1013.55 1013.67 1013.74 1013.81 1013.90 1014.05 1014.30 1014.62 1015.00 1015.39 1015.74 1016.03
1006.90 1008.15 1009.12 1009.75 1010.03 1010.00 1009.77 1009.45 1009.17 1009.03 1009.10 1009.37 1009.81 1010.34 1010.87 1011.33 1011.68 1011.89 1012.01 1012.06 1012.11 1012.19 1012.31 1012.47 1012.62 1012.74 1012.79 1012.77 1012.70 1012.61 1012.55 1012.56 1012.67 1012.87 1013.14 1013.42 1013.67 1013.86 1013.98 1014.04 1014.09 1014.16 1014.30 1014.53 1014.84 1015.21 1015.58 1015.91 1016.17
1006.74 1007.74 1008.46 1008.87 1009.00 1008.91 1008.70 1008.48 1008.37 1008.43 1008.70 1009.14 1009.72 1010.33 1010.91 1011.39 1011.74 1011.96 1012.09 1012.17 1012.25 1012.36 1012.50 1012.66 1012.80 1012.89 1012.90 1012.85 1012.76 1012.67 1012.63 1012.68 1012.84 1013.10 1013.42 1013.75 1014.04 1014.25 1014.38 1014.43 1014.46 1014.50 1014.61 1014.80 1015.07 1015.39 1015.72 1016.00 1016.20
1006.65 1007.41 1007.89 1008.10 1008.09 1007.94 1007.76 1007.64 1007.66 1007.88 1008.30 1008.87 1009.53 1010.20 1010.81 1011.31 1011.67 1011.91 1012.07 1012.20 1012.33 1012.48 1012.66 1012.83 1012.98 1013.06 1013.06 1012.99 1012.89 1012.80 1012.77 1012.86 1013.06 1013.36 1013.73 1014.10 1014.42 1014.66 1014.80 1014.86 1014.87 1014.88 1014.95 1015.08 1015.29 1015.54 1015.79 1016.01 1016.14
1006.77 1007.30 1007.57 1007.61 1007.49 1007.30 1007.13 1007.08 1007.19 1007.52 1008.02 1008.66 1009.36 1010.05 1010.66 1011.17 1011.54 1011.81 1012.02 1012.19 1012.38 1012.58 1012.80 1013.00 1013.15 1013.23 1013.23 1013.15 1013.05 1012.97 1012.96 1013.06 1013.28 1013.61 1014.00 1014.40 1014.75 1015.02 1015.18 1015.24 1015.25 1015.24 1015.27 1015.35 1015.48 1015.65 1015.83 1015.96 1016.04
1007.15 1007.50 1007.59 1007.50 1007.30 1007.08 1006.92 1006.91 1007.09 1007.46 1007.99 1008.64 1009.33 1010.00 1010.60 1011.09 1011.47 1011.76 1012.00 1012.22 1012.45 1012.68 1012.93 1013.14 1013.30 1013.39 1013.39 1013.32 1013.22 1013.15 1013.14 1013.25 1013.47 1013.80 1014.20 1014.61 1014.97 1015.26 1015.45 1015.53 1015.55 1015.54 1015.54 1015.57 1015.65 1015.74 1015.84 1015.90 1015.92
1007.76 1007.97 1007.94 1007.77 1007.53 1007.31 1007.18 1007.20 1007.40 1007.78 1008.30 1008.91 1009.56 1010.18 1010.73 1011.19 1011.56 1011.86 1012.10 1012.34 1012.57 1012.81 1013.05 1013.26 1013.42 1013.50 1013.51 1013.46 1013.38 1013.31 1013.31 1013.41 1013.62 1013.92 1014.30 1014.69 1015.05 1015.35 1015.56 1015.68 1015.73 1015.74 1015.74 1015.74 1015.77 1015.82 1015.85 1015.86 1015.83
1008.47 1008.58 1008.49 1008.30 1008.07 1007.89 1007.81 1007.87 1008.09 1008.46 1008.93 1009.48 1010.06 1010.61 1011.10 1011.52 1011.86 1012.13 1012.36 1012.56 1012.77 1012.97 1013.16 1013.34 1013.47 1013.55 1013.58 1013.55 1013.50 1013.46 1013.47 1013.55 1013.72 1013.98 1014.31 1014.66 1015.00 1015.30 1015.53 1015.68 1015.77 1015.82 1015.83 1015.85 1015.86 1015.87 1015.87 1015.85 1015.79
1009.10 1009.15 1009.06 1008.91 1008.76 1008.68 1008.68 1008.81 1009.04 1009.39 1009.82 1010.29 1010.78 1011.26 1011.68 1012.05 1012.34 1012.57 1012.75 1012.90 1013.03 1013.15 1013.27 1013.38 1013.48 1013.56 1013.60 1013.61 1013.60 1013.60 1013.62 1013.69 1013.82 1014.02 1014.26 1014.55 1014.84 1015.12 1015.36 1015.54 1015.68 1015.77 1015.83 1015.87 1015.89 1015.90 1015.90 1015.87 1015.80
1009.50 1009.54 1009.50 1009.46 1009.45 1009.51 1009.64 1009.85 1010.13 1010.46 1010.83 1011.22 1011.63 1012.02 1012.38 1012.68 1012.93 1013.11 1013.23 1013.30 1013.33 1013.35 1013.37 1013.41 1013.46 1013.52 1013.59 1013.65 1013.70 1013.75 1013.79 1013.85 1013.94 1014.06 1014.22 1014.42 1014.64 1014.87 1015.10 1015.30 1015.48 1015.62 1015.73 1015.81 1015.87 1015.90 1015.91 1015.90 1015.85
1009.58 1009.64 1009.71 1009.84 1010.03 1010.28 1010.57 1010.88 1011.20 1011.51 1011.82 1012.13 1012.44 1012.75 1013.05 1013.31 1013.52 1013.66 1013.71 1013.70 1013.63 1013.54 1013.46 1013.41 1013.42 1013.47 1013.57 1013.69 1013.82 1013.93 1014.01 1014.07 1014.11 1014.15 1014.21 1014.30 1014.43 1014.60 1014.80 1015.00 1015.20 1015.39 1015.55 1015.67 1015.77 1015.84 1015.89 1015.91 1015.90
1009.31 1009.45 1009.69 1010.03 1010.46 1010.94 1011.40 1011.82 1012.17 1012.44 1012.67 1012.88 1013.10 1013.33 1013.57 1013.80 1013.98 1014.10 1014.12 1014.05 1013.90 1013.72 1013.55 1013.42 1013.38 1013.43 1013.57 1013.76 1013.96 1014.14 1014.27 1014.34 1014.34 1014.31 1014.27 1014.25 1014.27 1014.36 1014.50 1014.68 1014.89 1015.10 1015.30 1015.47 1015.61 1015.72 1015.80 1015.87 1015.91
1008.80 1009.06 1009.51 1010.12 1010.81 1011.51 1012.14 1012.64 1012.99 1013.20 1013.32 1013.40 1013.50 1013.64 1013.83 1014.05 1014.24 1014.37 1014.39 1014.30 1014.12 1013.88 1013.64 1013.45 1013.38 1013.43 1013.60 1013.85 1014.12 1014.37 1014.55 1014.63 1014.61 1014.51 1014.38 1014.25 1014.17 1014.17 1014.24 1014.39 1014.59 1014.81 1015.02 1015.22 1015.38 1015.52 1015.65 1015.75 1015.85
1008.20 1008.63 1009.32 1010.20 1011.16 1012.07 1012.83 1013.37 1013.66 1013.75 1013.72 1013.64 1013.59 1013.64 1013.79 1014.00 1014.24 1014.42 1014.50 1014.44 1014.26 1014.00 1013.73 1013.51 1013.42 1013.46 1013.65 1013.95 1014.28 1014.59 1014.82 1014.91 1014.88 1014.73 1014.52 1014.30 1014.13 1014.04 1014.05 1014.15 1014.32 1014.52 1014.74 1014.94 1015.11 1015.27 1015.41 1015.55 1015.68
1007.66 1008.31 1009.27 1010.41 1011.60 1012.68 1013.51 1014.02 1014.22 1014.13 1013.89 1013.61 1013.41 1013.35 1013.45 1013.69 1013.99 1014.26 1014.43 1014.46 1014.34 1014.10 1013.83 1013.60 1013.48 1013.52 1013.72 1014.03 1014.40 1014.75 1015.01 1015.12 1015.08 1014.91 1014.65 1014.37 1014.13 1013.97 1013.92 1013.97 1014.11 1014.29 1014.49 1014.67 1014.84 1014.98 1015.12 1015.26 1015.42
1007.34 1008.22 1009.42 1010.81 1012.18 1013.36 1014.20 1014.63 1014.65 1014.35 1013.87 1013.37 1012.99 1012.82 1012.89 1013.16 1013.54 1013.94 1014.24 1014.38 1014.35 1014.18 1013.94 1013.70 1013.57 1013.59 1013.77 1014.08 1014.45 1014.82 1015.09 1015.22 1015.18 1015.00 1014.73 1014.42 1014.14 1013.94 1013.85 1013.87 1013.97 1014.13 1014.30 1014.46 1014.59 1014.70 1014.81 1014.93 1015.07
1007.29 1008.38 1009.81 1011.37 1012.86 1014.06 1014.84 1015.13 1014.95 1014.41 1013.68 1012.97 1012.42 1012.15 1012.19 1012.50 1012.98 1013.51 1013.95 1014.24 1014.32 1014.23 1014.02 1013.80 1013.65 1013.64 1013.78 1014.06 1014.41 1014.77 1015.04 1015.18 1015.16 1014.99 1014.72 1014.42 1014.13 1013.93 1013.82 1013.83 1013.92 1014.05 1014.19 1014.31 1014.40 1014.46 1014.52 1014.59 1014.69
1007.52 1008.79 1010.36 1012.02 1013.53 1014.70 1015.36 1015.47 1015.07 1014.30 1013.35 1012.45 1011.77 1011.42 1011.45 1011.80 1012.38 1013.03 1013.62 1014.03 1014.23 1014.22 1014.07 1013.86 1013.69 1013.64 1013.73 1013.96 1014.28 1014.61 1014.87 1015.02 1015.02 1014.88 1014.64 1014.37 1014.11 1013.93 1013.84 1013.85 1013.94 1014.06 1014.17 1014.26 1014.30 1014.31 1014.30 1014.31 1014.34
1007.96 1009.33 1010.96 1012.62 1014.08 1015.14 1015.65 1015.57 1014.98 1014.01 1012.90 1011.86 1011.09 1010.70 1010.74 1011.14 1011.80 1012.55 1013.25 1013.78 1014.08 1014.14 1014.03 1013.84 1013.66 1013.57 1013.62 1013.79 1014.06 1014.36 1014.62 1014.77 1014.79 1014.69 1014.50 1014.28 1014.08 1013.94 1013.89 1013.93 1014.03 1014.15 1014.25 1014.31 1014.31 1014.27 1014.20 1014.13 1014.09
1008.54 1009.92 1011.51 1013.08 1014.40 1015.30 1015.63 1015.39 1014.64 1013.56 1012.35 1011.26 1010.46 1010.07 1010.12 1010.57 1011.28 1012.10 1012.86 1013.46 1013.82 1013.94 1013.87 1013.70 1013.51 1013.41 1013.42 1013.56 1013.80 1014.07 1014.31 1014.48 1014.53 1014.47 1014.34 1014.18 1014.05 1013.97 1013.97 1014.05 1014.17 1014.31 1014.42 1014.47 1014.45 1014.37 1014.24 1014.10 1013.99
1009.17 1010.46 1011.91 1013.31 1014.44 1015.14 1015.30 1014.93 1014.10 1012.97 1011.76 1010.69 1009.93 1009.58 1009.66 1010.12 1010.85 1011.67 1012.45 1013.06 1013.45 1013.59 1013.55 1013.41 1013.24 1013.14 1013.16 1013.29 1013.51 1013.77 1014.02 1014.20 1014.28 1014.27 1014.20 1014.11 1014.03 1014.02 1014.08 1014.20 1014.37 1014.53 1014.66 1014.72 1014.69 1014.59 1014.43 1014.25 1014.07
1009.80 1010.93 1012.16 1013.31 1014.21 1014.70 1014.73 1014.27 1013.43 1012.34 1011.22 1010.25 1009.57 1009.27 1009.38 1009.83 1010.52 1011.29 1012.01 1012.57 1012.93 1013.08 1013.06 1012.95 1012.83 1012.77 1012.82 1012.98 1013.22 1013.50 1013.76 1013.97 1014.09 1014.12 1014.10 1014.07 1014.06 1014.10 1014.21 1014.38 1014.59 1014.79 1014.95 1015.03 1015.02 1014.93 1014.76 1014.55 1014.34
1010.40 1011.32 1012.30 1013.18 1013.83 1014.13 1014.04 1013.56 1012.77 1011.80 1010.83 1009.99 1009.43 1009.20 1009.31 1009.71 1010.29 1010.94 1011.54 1012.00 1012.29 1012.41 1012.41 1012.34 1012.29 1012.30 1012.42 1012.65 1012.94 1013.26 1013.56 1013.80 1013.96 1014.04 1014.07 1014.08 1014.12 1014.22 1014.37 1014.59 1014.83 1015.07 1015.26 1015.38 1015.40 1015.33 1015.18 1014.98 1014.75
Thickness
5842 5839 5833 5819 5793 5769 5763 5775 5784 5783 5782 5788 5791 5784 5773 5765 5754 5743 5763 5771 5770 5770 5769 5769 5768 5768 5768 5768 5768 5768 5768 5768 5768 5768 5768 5768 5768 5768 5768 5767 5766 5766 5765 5765 5763 5762 5762 5761 5760
5846 5841 5828 5809 5776 5751 5760 5779 5782 5786 5789 5793 5791 5784 5775 5767 5771 5765 5766 5769 5770 5770 5769 5768 5768 5767 5767 5767 5767 5767 5767 5767 5767 5767 5767 5767 5767 5767 5766 5766 5765 5764 5763 5763 5762 5760 5760 5759 5758
5849 5844 5819 5794 5772 5761 5767 5784 5788 5794 5799 5795 5786 5784 5776 5769 5773 5770 5772 5773 5771 5769 5769 5768 5767 5767 5767 5766 5766 5766 5766 5766 5767 5766 5766 5765 5765 5765 5765 5765 5763 5762 5762 5761 5760 5759 5758 5757 5756
5848 5830 5813 5786 5775 5786 5790 5793 5797 5793 5794 5794 5787 5775 5777 5783 5781 5778 5777 5775 5771 5769 5769 5768 5767 5766 5766 5766 5765 5765 5766 5766 5766 5766 5765 5765 5764 5764 5763 5762 5762 5761 5760 5760 5759 5758 5757 5756 5755
5846 5820 5793 5777 5783 5796 5804 5806 5805 5794 5789 5786 5784 5769 5768 5783 5786 5782 5777 5775 5772 5770 5769 5768 5768 5767 5766 5766 5765 5765 5765 5766 5766 5766 5764 5763 5763 5763 5762 5761 5761 5760 5759 5758 5758 5757 5756 5755 5754
5831 5812 5782 5772 5786 5801 5807 5811 5806 5794 5787 5786 5781 5770 5768 5782 5782 5780 5779 5775 5774 5772 5770 5769 5768 5767 5766 5765 5765 5764 5765 5765 5765 5764 5763 5763 5762 5762 5761 5760 5760 5759 5759 5758 5757 5756 5755 5754 5753
5824 5805 5788 5788 5790 5796 5806 5815 5806 5795 5788 5788 5787 5770 5769 5778 5783 5783 5780 5776 5774 5772 5770 5768 5768 5767 5766 5765 5765 5764 5764 5764 5763 5762 5762 5762 5761 5761 5760 5760 5760 5759 5758 5757 5756 5755 5754 5753 5752
5842 5815 5797 5795 5793 5795 5813 5818 5813 5804 5795 5800 5795 5773 5767 5779 5786 5784 5779 5776 5774 5772 5770 5768 5767 5767 5766 5766 5765 5764 5763 5763 5762 5762 5761 5761 5760 5760 5759 5759 5759 5759 5758 5757 5756 5754 5753 5753 5752
5853 5812 5794 5800 5800 5802 5817 5814 5813 5816 5804 5800 5799 5791 5787 5789 5787 5780 5774 5772 5770 5770 5769 5768 5767 5766 5766 5765 5765 5764 5763 5762 5761 5761 5760 5760 5759 5758 5758 5758 5758 5758 5757 5756 5755 5754 5753 5753 5752
5843 5810 5811 5825 5825 5819 5821 5817 5813 5805 5795 5791 5791 5793 5794 5790 5784 5777 5772 5769 5768 5768 5769 5769 5768 5767 5767 5766 5765 5764 5763 5762 5761 5760 5759 5759 5758 5758 5758 5758 5757 5757 5756 5756 5754 5754 5753 5753 5752
5847 5826 5833 5838 5839 5834 5823 5820 5820 5803 5789 5791 5790 5790 5791 5787 5782 5777 5774 5773 5772 5772 5772 5771 5770 5769 5768 5767 5765 5764 5763 5762 5761 5760 5760 5759 5758 5758 5757 5757 5756 5756 5755 5755 5754 5753 5753 5753 5752
5849 5844 5846 5842 5844 5837 5828 5824 5816 5809 5803 5809 5805 5800 5794 5787 5782 5779 5775 5775 5775 5774 5774 5774 5773 5771 5769 5768 5766 5765 5764 5763 5762 5761 5760 5759 5758 5757 5757 5756 5756 5755 5755 5755 5754 5753 5753 5753 5753
5846 5843 5849 5848 5845 5841 5835 5825 5819 5813 5817 5815 5809 5801 5793 5788 5785 5783 5782 5779 5777 5775 5775 5776 5775 5773 5771 5770 5768 5767 5765 5764 5764 5763 5761 5760 5759 5758 5757 5756 5756 5755 5755 5754 5754 5753 5753 5753 5753
5848 5847 5845 5844 5841 5840 5830 5823 5818 5812 5818 5812 5806 5799 5795 5790 5787 5784 5781 5779 5778 5777 5776 5777 5776 5775 5773 5772 5770 5768 5767 5766 5765 5764 5763 5762 5761 5760 5758 5757 5756 5756 5756 5755 5754 5754 5754 5754 5754
5855 5839 5834 5836 5837 5834 5828 5809 5812 5818 5818 5809 5804 5801 5798 5793 5790 5787 5785 5783 5782 5780 5778 5776 5777 5776 5775 5773 5772 5770 5769 5768 5766 5765 5764 5763 5762 5761 5759 5757 5756 5756 5756 5756 5755 5754 5754 5754 5754
5842 5822 5807 5825 5834 5833 5818 5791 5813 5821 5815 5806 5805 5803 5798 5793 5791 5791 5790 5787 5785 5783 5780 5779 5780 5776 5775 5774 5773 5771 5770 5769 5767 5766 5765 5764 5763 5762 5760 5758 5757 5757 5757 5756 5755 5754 5753 5752 5751
5817 5801 5802 5817 5834 5829 5815 5798 5814 5822 5816 5808 5806 5803 5798 5793 5793 5794 5793 5791 5788 5785 5782 5780 5780 5777 5775 5775 5773 5772 5771 5769 5768 5767 5766 5765 5764 5762 5761 5759 5758 5757 5756 5756 5756 5754 5752 5750 5750
5802 5803 5806 5809 5826 5825 5810 5805 5816 5821 5817 5810 5807 5804 5800 5796 5795 5798 5797 5794 5791 5788 5785 5782 5781 5778 5777 5775 5773 5772 5770 5769 5769 5768 5766 5765 5764 5762 5761 5760 5758 5757 5756 5755 5754 5753 5752 5750 5749
5826 5817 5811 5817 5831 5820 5808 5806 5813 5819 5816 5810 5806 5803 5801 5800 5802 5801 5799 5796 5792 5788 5786 5783 5780 5779 5777 5773 5771 5768 5766 5767 5767 5767 5766 5765 5764 5763 5761 5759 5758 5756 5755 5754 5753 5752 5750 5749 5749
5829 5816 5813 5820 5831 5820 5807 5806 5815 5818 5816 5815 5810 5806 5804 5801 5800 5800 5799 5796 5793 5789 5787 5784 5782 5780 5778 5776 5773 5771 5769 5767 5767 5766 5766 5765 5763 5762 5761 5759 5757 5756 5754 5752 5751 5750 5747 5747 5747
5824 5817 5815 5813 5820 5819 5805 5792 5801 5813 5819 5820 5818 5813 5810 5806 5802 5800 5799 5796 5794 5791 5789 5788 5784 5782 5780 5778 5775 5772 5769 5766 5764 5763 5763 5764 5763 5761 5760 5759 5757 5755 5754 5751 5750 5749 5746 5742 5743
5814 5834 5832 5823 5803 5790 5798 5769 5791 5802 5808 5812 5812 5811 5810 5810 5807 5804 5801 5798 5796 5794 5793 5790 5786 5784 5781 5779 5774 5770 5765 5761 5762 5763 5762 5763 5762 5761 5760 5758 5757 5755 5753 5751 5749 5749 5746 5743 5739
5831 5844 5835 5825 5806 5789 5791 5775 5782 5798 5795 5805 5812 5814 5815 5815 5812 5807 5806 5803 5801 5798 5795 5791 5788 5785 5782 5779 5775 5771 5766 5765 5764 5763 5762 5761 5760 5760 5759 5757 5756 5754 5752 5750 5749 5747 5745 5743 5740
5849 5834 5822 5808 5790 5767 5782 5775 5774 5790 5800 5808 5814 5817 5817 5817 5815 5811 5809 5806 5802 5799 5796 5792 5787 5784 5782 5779 5775 5772 5769 5766 5763 5761 5758 5758 5758 5758 5757 5756 5755 5753 5751 5749 5748 5746 5744 5742 5740
5835 5800 5772 5767 5755 5760 5783 5777 5780 5809 5817 5819 5817 5818 5819 5818 5814 5810 5806 5804 5801 5798 5795 5791 5787 5783 5781 5779 5776 5773 5771 5768 5764 5760 5758 5756 5755 5754 5755 5755 5753 5751 5750 5749 5747 5744 5743 5741 5739
5823 5801 5768 5755 5750 5758 5776 5771 5790 5818 5825 5827 5824 5822 5820 5816 5814 5810 5808 5805 5802 5799 5795 5791 5786 5782 5780 5778 5776 5774 5771 5768 5765 5762 5759 5757 5755 5755 5754 5753 5751 5750 5748 5747 5744 5742 5741 5739 5737
5819 5805 5801 5774 5764 5753 5760 5776 5794 5816 5816 5818 5818 5817 5816 5815 5814 5811 5808 5804 5801 5798 5795 5791 5786 5782 5780 5777 5774 5771 5769 5767 5764 5762 5760 5758 5756 5755 5753 5751 5749 5747 5746 5744 5741 5739 5737 5736 5734
5832 5817 5788 5769 5750 5741 5753 5762 5769 5794 5801 5807 5809 5811 5813 5814 5812 5811 5808 5805 5802 5799 5795 5792 5787 5782 5778 5775 5773 5771 5768 5766 5763 5760 5758 5756 5754 5753 5750 5748 5746 5744 5742 5740 5738 5735 5734 5732 5730
5819 5810 5788 5768 5763 5744 5737 5755 5800 5803 5807 5807 5809 5811 5811 5811 5811 5810 5807 5805 5802 5798 5794 5790 5786 5782 5778 5775 5772 5769 5766 5764 5761 5758 5756 5754 5752 5750 5747 5745 5743 5740 5738 5736 5734 5731 5730 5728 5726
5823 5811 5791 5770 5762 5755 5747 5761 5816 5813 5813 5811 5809 5810 5811 5811 5810 5808 5806 5803 5799 5796 5793 5789 5786 5782 5779 5775 5772 5768 5764 5761 5757 5755 5753 5751 5749 5747 5745 5742 5739 5736 5733 5731 5729 5727 5725 5723 5720